This demonstration page uses our WeatherBlox Daily Observations layout. Learn more.

Left ArrowRight Arrow

Hourly Observations for August 19, 2021

Temp ( °F °C ) Dew Point ( °F °C ) Humidity (%) Winds ( mph kmh ) Pressure ( in mb ) Visibility ( mi km ) Precip ( " mm )
12:51 am 00:51 Clear 67 19.4 67 19.4 100 100 E 6 9 29.90 1013 10 16 0.00 0.00
1:51 am 01:51 Clear 67 19.4 66 18.9 97 97 Calm 29.89 1012 10 16 0.00 0.00
2:51 am 02:51 Clear 66 18.9 66 18.9 100 100 VRB 3 6 29.88 1012 10 16 0.00 0.00
3:51 am 03:51 Clear 66 18.9 66 18.9 100 100 NW 3 6 29.86 1011 10 16 0.00 0.00
4:51 am 04:51 Clear 65 18.3 65 18.3 100 100 Calm 29.87 1012 10 16 0.00 0.00
5:51 am 05:51 Sunny with Mist and Fog 65 18.3 65 18.3 100 100 Calm 29.88 1012 6 10 0.00 0.00
6:51 am 06:51 Sunny 67 19.4 67 19.4 100 100 Calm 29.91 1013 9 14 0.00 0.00
7:51 am 07:51 Sunny 70 21.1 65 18.3 84 84 Calm 29.93 1014 10 16 0.00 0.00
8:51 am 08:51 Sunny 77 25 64 17.8 64 64 VRB 3 6 29.92 1013 10 16 0.00 0.00
9:51 am 09:51 Sunny 79 26.1 64 17.8 60 60 SE 7 11 29.91 1013 10 16 0.00 0.00
10:51 am 10:51 undefined 83 28.3 64 17.8 53 53 VRB 5 7 29.89 1012 10 16 0.00 0.00
11:51 am 11:51 Sunny 84 28.9 64 17.8 51 51 SW 3 6 29.87 1012 10 16 0.00 0.00
12:51 pm 12:51 Mostly Sunny 88 31.1 62 16.7 42 42 VRB 6 9 29.84 1011 10 16 0.00 0.00
1:51 pm 13:51 Mostly Cloudy 89 31.7 61 16.1 39 39 NW 6 9 29.81 1010 10 16 0.00 0.00
2:51 pm 14:51 Sunny 91 32.8 62 16.7 38 38 NW 7 11 29.79 1009 10 16 0.00 0.00
3:51 pm 15:51 Sunny 91 32.8 62 16.7 38 38 NW 10 17 29.77 1008 10 16 0.00 0.00
4:51 pm 16:51 Sunny 90 32.2 59 15 35 35 NW 9 15 29.76 1008 10 16 0.00 0.00
5:51 pm 17:51 Sunny 89 31.7 59 15 36 36 WNW 9 15 29.76 1008 10 16 0.00 0.00
6:51 pm 18:51 Mostly Cloudy 85 29.4 62 16.7 46 46 NW 8 13 29.76 1008 10 16 0.00 0.00
7:51 pm 19:51 Clear 80 26.7 66 18.9 62 62 NW 6 9 29.78 1009 10 16 0.00 0.00
8:51 pm 20:51 Mostly Cloudy 78 25.6 65 18.3 64 64 WNW 7 11 29.79 1009 10 16 0.00 0.00
9:51 pm 21:51 Clear 77 25 67 19.4 71 71 WNW 7 11 29.79 1009 10 16 0.00 0.00
10:51 pm 22:51 Clear 75 23.9 66 18.9 74 74 N 5 7 29.80 1009 10 16 0.00 0.00
11:51 pm 23:51 Clear 76 24.4 64 17.8 67 67 WNW 6 9 29.80 1009 10 16 0.00 0.00

Powered by AerisWeather